SCD 1

Last updated on Sun Nov 16 2025 00:03:19 GMT+0000 (Coordinated Universal Time)

1 22490U 93009B 25319.50193508 .00000754 00000+0 15570-3 0 9995 2 22490 24.9691 86.8216 0042190 36.7950 35.9743 14.45973283730150
UTC large
Height (km)
Speed (km/s)
/
Latitude / Longitude
Inclination (degrees)
Orbital Period (minutes)
Azimuth
Elevation
Range (km)
Doppler Factor

Next 0 passes for location: London (51.5072 / 0.1276)

Sorry there are no passes over London.